Location: Albuquerque Trailhead
(34.7934°N, 106.3736°W)
Time: 02:18:13
(UTC+00:00)

Cosmos 1943 Rocket - Pass Details

Date: 20 June 2021
Orbit: 813 x 843 km, 71.0° (Epoch: 27 July)

Event Time Altitude Azimuth Distance (km) Brightness Sun altitude
Rises 08:09:45 0° 330° (NNW) 3,341 5.9 -29.9°
Reaches altitude 10° 08:12:17 10° 323° (NW) 2,408 5.0 -29.8°
Enters shadow 08:15:27 30° 298° (WNW) 1,429 3.4 -29.6°
